User: anonymous   Login
Location: NJAA Observatory
(40.6819°N, 74.8979°W)
Time: 09:39:45
(UTC-05:00)
Language:

S-56A Canister/Altair - Orbit

View from above orbital plane
View from above orbital plane
View from above satellite
View from above satellite

Ground track
Ground track

The orbit data is extracted from the following two-line orbital elements,

1    82U 61004B   17350.31901293 +.00000089 +00000-0 +11556-3 0  9993
2    82 038.8589 343.0123 1173420 352.1227 006.2392 12.25902552695611
Epoch (UTC): 16 December 2017 07:39:22
Eccentricity: 0.1173420
inclination: 38.8589°
perigee height: 634 km
apogee height: 2499 km
right ascension of ascending node: 343.0123°
argument of perigee: 352.1227°
revolutions per day: 12.25902552
mean anomaly at epoch: 6.2392°
orbit number at epoch: 69561

The dashed part of the orbit path shows where the satellite is in the earth's shadow,  

DLR